Погода в Елани

Погода в Елани : погода сейчас, прогноз погоды и архив. Всё, что Вы хотите узнать о погоде в Елани!

Хотите узнать прогноз погоды в Елани? Тогда Вам сюда: Погода в Елани

Поиск расширенной информации на нашем сайте:

Другие новости

Новости СМИ2

Главная страница сайта

Новости сайта

03.07.2017

Напоминаем, что на нашем специализированном сайте Метеоцентр.Азия вы можете получить высокодетализированные автоматические прогнозы погоды по пунктам России, СНГ и мира в авиационном формате (включающие направление и скорость ветра, видимость, явления погоды, количество и форму облачности, нижнюю и верхнюю границу облачности).


Погода в Елани - сегодня

Время (UTC), дата Ветер
(°,м/с) 
Видим.   Явления Облачность Т
(°С)
Тd
(°С)
f(%) Тe
(°С)
Pmin
(гПа)
dP
(гПа)
Po
(мм)
O2
(г/м3)
Тmin Tmax R s Состояние
почвы
21 18.09.18 270 (З) 20000 м    10/0 средняя 
[Ac As]
+13.2 +9.3 77 +13  1014.6  0.2  749  286           
00 19.09.18 280 (З) 20000 м    3/0 верхняя 
[Ci fib]
+11 +9.5 90 +12  1014.9  0.2  749  288           
06 19.09.18 310 (СЗ) 20000 м    6/0 верхняя 
[Ci fib]
+14.4 +6.4 59 +14  1017.5  1.3  751  286           
18 19.09.18 260 (З) 20000 м    6/0 средняя 
[Ac trans]
+12.9 +6.8 66 +13  1017.4  -0.2  751  288           
21 19.09.18 260 (З) 20000 м    ясно 
+14 +7.6 65 +13  1016.6  -0.6  751  286           
00 20.09.18 270 (З) 20000 м    ясно 
+13.8 +8.7 71 +13  1016.4  -0.2  750  286           
06 20.09.18 270 (З) 20000 м    3/0 верхняя 
[Ci fib]
+18.8 +11.1 61 +22  1016.7  0.4  751  281  +12.1         
18 20.09.18 250 (З) 20000 м    3/0 средняя 
[Ac trans]
+16.1 +10.7 70 +19  1015  0.3  749  283           
21 20.09.18 250 (З) 20000 м    8/0 средняя 
[Ac trans]
+14.5 +10.6 77 +17  1014.3  -0.8  749  285           
00 21.09.18 310 (СЗ) 20000 м    3/0 средняя 
[Ac trans]
+15.8 +11.4 75 +19  1014.9  0.6  749  283           
06 21.09.18 360 (С) 20000 м    3/0 верхняя 
[Ci fib]
+17 +11.4 70 +20  1018.5  1.6  752  283  +12.2         
09 21.09.18 350 (С) 20000 м    5/1 1000 м верхняя 
[Cu hum|Cc]
+21.4 +10.4 49 +23  1019  0.8  753  279           
12 21.09.18 330 (СЗ) 20000 м    5/3 1000 м верхняя 
[Cu hum|Ci fib]
+22.6 +9.6 44 +23  1019.3  0.3  753  278           
18 21.09.18 340 (С) 20000 м    3/0 верхняя 
[Ci fib]
+15.9 +9.2 64 +17  1021.6  1.3  754  286           
21 21.09.18 010 (С) 20000 м    ясно 
+12.9 +8.7 76 +13  1022.4  0.6  755  289           
00 22.09.18 тихо ()   20000 м    ясно 
+9.5 +8.7 95 +10  1023.2  0.6  755  293           
06 22.09.18 190 (Ю) 20000 м    8/0 верхняя 
[Ci fib]
+18 +10.7 62 +21  1023.7  0.2  756  284           
09 22.09.18 130 (ЮВ) 20000 м    8/3 1000 м верхняя 
[Cu med, cong|Ci fib]
+23.5 +9.1 40 +24  1022.8  -0.6  755  279           
12 22.09.18 170 (Ю) 20000 м    8/0 верхняя 
[Ci fib]
+24.5 +8.9 37 +25  1021.5  -1.3  755  277           
18 22.09.18 140 (ЮВ) 20000 м    ясно 
+14.9 +9.9 72 +17  1020.9  -0.4  754  286           
21 22.09.18 120 (ЮВ) 20000 м    ясно 
+12.9 +9.4 79 +14  1020.6  -0.4  753  288           
00 23.09.18 100 (В) 20000 м    ясно 
+11.5 +8.9 84 +13  1019.9  -0.8  753  289           
06 23.09.18 170 (Ю) 20000 м    10/0 верхняя 
[Ci fib]
+20.2 +9.1 49 +20  1017.6  -0.8  751  280           
18 23.09.18 210 (ЮЗ) 20000 м  зарница  9/4 600 м кучево-дожд., средняя 
[Cb cap|Ac As]
+17.7 +6.4 47 +18  1009.2  -1.7  745  281           
21 23.09.18 150 (ЮВ) 4000 м  слаб. ливневой дождь{гроза}  10/10 300 м кучево-дожд. 
[Cb cap]
+13.5 +12.8 96 +20  1010  0.5  746  284           
Время (UTC), дата Ветер
(°,м/с) 
Видим.   Явления Облачность Т
(°С)
Тd
(°С)
f(%) Тe
(°С)
Pmin
(гПа)
dP
(гПа)
Po
(мм)
O2
(г/м3)
Тmin Tmax R s Состояние
почвы

Для получения пояснительной информации подведите курсор к названию столбца.

ПОГОДА в Елани - архив

Всё, что Вы хотите узнать о погоде в Елани - удобно и подробно!

Выберите нужную дату (начиная с 1 января 2015* года) и нажмите кнопку "Найти".
Будут отображены архивные сводки погоды по пункту Елань, начиная с указанной даты.


Отображать данные в формате CSV (для использования в таблицах Excel)


Внимание! Наш архив погоды предназначен исключительно для личного некоммерческого использования в познавательных целях. Если Вам необходимы официальные справки о состоянии погоды (для производственных, юридических, коммерческих и т.п. целей), обращайтесь в органы Росгидромета.

*Примечание: данная дата относится к архиву по метеостанциям СССР (Россия, СНГ, Балтия).
Архив по метеостанциям Зарубежной Европы и Азии (кроме Китая) хранится 10 дней, по другим регионам земного шара (Китай, Африка, Америка, Австралия, Океания) - 1 день.

Елань - район местоположения метеостанции


Название, широта, долгота, высота метеостанции:
Елань 50.9°ш. 43.7°д. 132 м над ур. моря [Российская Федерация]

Дополнительная информация

В oтличие oт бoльшинства пoгoдных сайтoв мы публикуем пoдрoбную метеoинфoрмацию в детальнoм прoфессиoнальнoм фoрмате.

Характеристики температуры и влажнoсти вoздуха измеряются на высoте 2 м в тени вдали oт зданий и деревьев.
Скoрoсть ветра измеряется на высoте 10 м (на урoвне рoста челoвека скoрoсть ветра ниже в 1.5-2 раза). Если метеoстанция нахoдится в гoрoде или в лесу, тo скoрoсть ветра занижена на 2-4 м/с пo сравнению с oткрытым местoм. Скoрoсть ветра над акватoриями крупных рек и oзёр, а также на вершинах хoлмoв на 2-5 м/с выше, чем в oбычных услoвиях.
Атмoсфернoе давление в разных тoчках местнoсти мoжет значительнo oтличаться oт давления на метеoстанции, в зависимoсти oт услoвий рельефа (при пoдъёме на 10 м давление пoнижается примернo на 1 мм рт.ст.).